C4984 Weather Reports


Display with metric or nautical units.
time (UTC)temp
F
wind
direction
speed
MPH
gust
MPH
rain 1hr
in
rain 24hr
in
rain mn
in
humidity
%
barometer
mb
20260903081347 73 11 0.0 0.0 0.00 0.00 0.00 95 1011.1
20260903075219 74 11 0.0 0.0 0.00 0.00 0.00 95 1011.1
20260903074231 74 11 0.0 0.0 0.00 0.00 0.00 95 1010.9
20260903073215 74 11 0.0 0.0 0.00 0.00 0.00 95 1010.9
20260903072207 74 11 0.0 0.0 0.00 0.00 0.00 95 1010.9
20260903071142 74 11 0.0 0.0 0.00 0.00 0.00 95 1010.9
20260903070144 74 11 0.0 0.0 0.00 0.00 0.00 95 1010.9
20260903065139 74 11 0.0 0.0 0.00 0.00 0.00 94 1010.9
20260903064112 74 11 0.0 0.0 0.00 0.00 0.00 94 1011.1
20260903063132 74 11 0.0 0.0 0.00 0.00 0.00 94 1011.1
20260903062155 74 11 0.0 0.0 0.00 0.00 0.00 94 1011.2
20260903061135 74 11 0.0 0.0 0.00 0.00 0.00 94 1011.2
20260903060113 74 11 0.0 0.0 0.00 0.00 0.00 93 1011.2
20260903055127 74 11 0.0 0.0 0.00 0.00 0.00 93 1011.4
20260903054131 74 11 0.0 0.0 0.00 0.00 0.00 94 1011.3
20260903053129 74 11 0.0 0.0 0.00 0.00 0.00 94 1011.3
20260903052134 74 11 0.0 0.0 0.00 0.00 0.00 94 1011.3
20260903051136 74 11 0.0 0.0 0.00 0.00 0.00 93 1011.3
20260903050140 74 11 0.0 0.0 0.00 0.00 0.00 93 1011.3
20260903043005 74 11 0.0 0.0 0.00 0.00 0.00 92 1011.3
20260903041958 74 11 0.0 0.0 0.00 0.00 0.00 92 1011.5
20260903040948 74 11 0.0 0.0 0.00 0.00 0.00 92 1011.5
20260903035947 75 11 0.0 0.0 0.00 0.00 0.00 91 1011.5
20260903035004 75 11 0.0 0.0 0.00 0.00 0.00 91 1011.7
20260903033958 75 11 0.0 0.0 0.00 0.00 0.00 91 1011.7
20260903032933 75 11 0.0 0.0 0.00 0.00 0.00 90 1011.7
20260903031949 75 11 0.0 0.0 0.00 0.00 0.00 89 1011.7
20260903030939 76 11 0.0 0.0 0.00 0.00 0.00 89 1011.7
20260903025953 76 11 0.0 0.0 0.00 0.00 0.00 89 1011.7
20260903024938 76 11 0.0 0.0 0.00 0.00 0.00 88 1011.7
20260903023907 76 11 0.0 0.0 0.00 0.00 0.00 87 1011.7
20260903022844 76 11 0.0 0.0 0.00 0.00 0.00 87 1011.7
20260903015544 78 56 0.0 0.0 0.00 0.00 0.00 85 1011.8
20260903014544 78 56 0.0 0.0 0.00 0.00 0.00 84 1011.8
20260903012437 79 30 1.0 3.0 0.00 0.00 0.00 83 1011.9
20260903005225 80 97 1.0 5.0 0.00 0.00 0.00 83 1012.4
20260903004201 80 33 3.0 6.0 0.00 0.00 0.00 83 1011.9
20260903000930 85 5 5.0 10.0 0.00 0.00 0.00 73 1011.7
20260902235856 88 8 0.0 3.0 0.00 0.00 0.00 71 1011.1
20260902233746 91 220 0.0 0.0 0.00 0.00 0.00 62 1010.7
20260902232730 92 220 0.0 0.0 0.00 0.00 0.00 59 1011.2
20260902231750 93 220 0.0 0.0 0.00 0.00 0.00 57 1011.2
20260902225607 98 220 0.0 0.0 0.00 0.00 0.00 51 1010.9
20260902224542 100 220 0.0 0.0 0.00 0.00 0.00 49 1010.9
20260902223509 100 220 0.0 0.0 0.00 0.00 0.00 48 1010.9
20260902222437 100 220 0.0 0.0 0.00 0.00 0.00 50 1011.0
20260902221410 100 220 0.0 0.0 0.00 0.00 0.00 48 1011.0
20260902220343 100 220 0.0 0.0 0.00 0.00 0.00 49 1011.0
20260902215320 101 214 0.0 0.0 0.00 0.00 0.00 47 1010.9
20260902214313 101 181 0.0 3.0 0.00 0.00 0.00 44 1010.8
20260902213302 100 273 0.0 0.0 0.00 0.00 0.00 49 1010.8
20260902212259 100 0 0.0 3.0 0.00 0.00 0.00 50 1010.9
20260902211309 99 110 0.0 2.0 0.00 0.00 0.00 52 1010.9
20260902210314 99 71 0.0 1.0 0.00 0.00 0.00 47 1010.9
20260902205306 99 3 0.0 3.0 0.00 0.00 0.00 48 1010.7
20260902204257 100 208 0.0 2.0 0.00 0.00 0.00 48 1011.0
20260902203242 100 154 0.0 3.0 0.00 0.00 0.00 48 1011.0
20260902202238 100 2 0.0 3.0 0.00 0.00 0.00 51 1011.0
20260902201302 100 30 0.0 2.0 0.00 0.00 0.00 50 1011.1
20260902200250 99 1 0.0 1.0 0.00 0.00 0.00 51 1011.1
20260902195308 99 1 0.0 0.0 0.00 0.00 0.00 51 1011.2
20260902194324 100 1 0.0 0.0 0.00 0.00 0.00 48 1011.5
20260902193256 100 207 0.0 2.0 0.00 0.00 0.00 50 1011.5
20260902192230 99 25 0.0 3.0 0.00 0.00 0.00 50 1011.6
20260902190147 97 146 0.0 0.0 0.00 0.00 0.00 51 1011.7
20260902184029 99 162 1.0 5.0 0.00 0.00 0.00 51 1012.0
20260902182956 99 99 0.0 3.0 0.00 0.00 0.00 49 1012.0
20260902181956 98 353 1.0 5.0 0.00 0.00 0.00 54 1012.1
20260902181020 98 195 1.0 5.0 0.00 0.00 0.00 51 1012.1
20260902180028 97 172 0.0 4.0 0.00 0.00 0.00 54 1012.1
20260902175024 96 185 0.0 4.0 0.00 0.00 0.00 55 1012.2
20260902174004 96 154 0.0 4.0 0.00 0.00 0.00 53 1012.3
20260902173018 95 155 0.0 2.0 0.00 0.00 0.00 53 1012.3
20260902171951 96 301 1.0 4.0 0.00 0.00 0.00 52 1012.4
20260902170935 97 195 0.0 3.0 0.00 0.00 0.00 52 1012.6
20260902165920 97 103 0.0 3.0 0.00 0.00 0.00 52 1012.6
20260902163829 96 176 0.0 3.0 0.00 0.00 0.00 53 1012.8
20260902162846 96 93 0.0 2.0 0.00 0.00 0.00 52 1013.0
20260902160726 95 174 0.0 3.0 0.00 0.00 0.00 55 1013.0
20260902155705 94 160 0.0 3.0 0.00 0.00 0.00 59 1013.2
20260902154729 94 82 1.0 3.0 0.00 0.00 0.00 60 1013.2
20260902153743 94 35 0.0 2.0 0.00 0.00 0.00 59 1013.1
20260902152801 94 2 0.0 2.0 0.00 0.00 0.00 59 1013.2
20260902150648 93 82 0.0 2.0 0.00 0.00 0.00 62 1013.1
20260902142332 89 35 0.0 1.0 0.00 0.00 0.00 69 1012.8
20260902141312 88 6 0.0 2.0 0.00 0.00 0.00 69 1012.8
20260902140333 85 49 0.0 2.0 0.00 0.00 0.00 75 1012.8
20260902135356 83 51 0.0 1.0 0.00 0.00 0.00 81 1013.0
20260902134415 81 302 0.0 1.0 0.00 0.00 0.00 85 1013.0
20260902131138 77 231 0.0 2.0 0.00 0.00 0.00 94 1013.0
20260902130202 77 145 0.0 0.0 0.00 0.00 0.00 97 1013.0
20260902125215 76 115 0.0 0.0 0.00 0.00 0.00 98 1013.1
20260902124236 76 150 0.0 0.0 0.00 0.00 0.00 98 1013.2
20260902123208 75 68 0.0 0.0 0.00 0.00 0.00 98 1013.2
20260902122148 75 68 0.0 0.0 0.00 0.00 0.00 98 1013.1
20260902121211 74 68 0.0 0.0 0.00 0.00 0.00 98 1012.9
20260902120144 74 68 0.0 0.0 0.00 0.00 0.00 97 1012.9
20260902112852 74 68 0.0 0.0 0.00 0.00 0.00 97 1012.8
20260902111820 74 68 0.0 0.0 0.00 0.00 0.00 97 1012.8
20260902110830 73 68 0.0 0.0 0.00 0.00 0.00 97 1012.5
20260902105841 74 68 0.0 0.0 0.00 0.00 0.00 96 1012.4
20260902104846 74 68 0.0 0.0 0.00 0.00 0.00 96 1012.4
20260902103821 74 68 0.0 0.0 0.00 0.00 0.00 96 1012.2
20260902102800 74 68 0.0 0.0 0.00 0.00 0.00 96 1012.3
20260902100659 74 68 0.0 0.0 0.00 0.00 0.00 96 1012.2
20260902095712 74 68 0.0 0.0 0.00 0.00 0.00 96 1012.1
20260902094640 74 68 0.0 0.0 0.00 0.00 0.00 95 1012.1
20260902092525 74 68 0.0 0.0 0.00 0.00 0.00 95 1011.7
20260902091543 74 68 0.0 0.0 0.00 0.00 0.00 95 1011.7
20260902090533 74 68 0.0 0.0 0.00 0.00 0.00 94 1011.7
20260902085516 74 68 0.0 1.0 0.00 0.00 0.00 94 1011.7
20260902084522 74 96 0.0 0.0 0.00 0.00 0.00 94 1011.7
20260902083530 75 96 0.0 0.0 0.00 0.00 0.00 94 1011.6